Regional Weather Roundup
Issued by NWS

Home | Current Version | Previous Version | Text Only | Print | Product List | Glossary On
Versions: 1 2 3 4 5 6 7 8 9 10 11 12 13 14 15 16 17 18 19 20 21 22 23 24 25 26 27 28 29 30 31 32 33 34 35 36 37 38 39 40 41 42 43 44 45 46 47 48 49 50
000
ASUS43 KDTX 231410
RWRMI
MICHIGAN HOURLY REGIONAL WEATHER ROUNDUP
NATIONAL WEATHER SERVICE DETROIT/PONTIAC MI
900 AM EST THU FEB 23 2017

NOTE: "FAIR" INDICATES FEW OR NO CLOUDS BELOW 12,000 FEET WITH NO
SIGNIFICANT WEATHER AND/OR OBSTRUCTION TO VISIBILITY.

MIZ047>049-052>055-059>063-066>070-074>076-081>083-231500-
SOUTHEAST LOWER MICHIGAN

CITY           SKY/WX    TMP DP  RH WIND       PRES   REMARKS
ADRIAN         MOSUNNY   54  52  93 W9        29.73R
ALMA           SUNNY     49  44  81 W6        29.70R
ANN ARBOR      SUNNY     55  52  89 SW7       29.70R
BAD AXE        SUNNY     53  48  82 W13G21    29.63R
CARO           SUNNY     54  47  78 W14G20    29.65R
DETROIT CITY   MOSUNNY   58  52  80 W12       29.68R
DETROIT        MOSUNNY   58  53  84 SW12      29.71R HAZE
FLINT          SUNNY     53  47  79 W15G25    29.68R
GROSSE ILE     SUNNY     57  52  85 W10       29.69R
HILLSDALE      CLOUDY    52  50  93 W9        29.72R FOG
HOWELL         SUNNY     55  47  74 W12G17    29.69R

CITY           SKY/WX    TMP DP  RH WIND       PRES   REMARKS
JACKSON        MOSUNNY   54  47  77 W10       29.71R
LAMBERTVILLE   SUNNY     59  53  80 W7        29.72R
LANSING        SUNNY     52  43  71 W12       29.71R
LAPEER         FAIR      56  47  73 W13G20    29.66R
MASON          SUNNY     53  47  80 W7        29.70S
MONROE         SUNNY     57  54  87 W15       29.71R
MT. CLEMENS    MOSUNNY   59  54  82 W10       29.66R
PONTIAC        MOSUNNY   56  49  77 W13       29.67R
PORT HOPE        N/A     55  48  77 W12G22    29.59R
PORT HURON     MOSUNNY   57  52  82 SW6       29.66R
TRI CITIES     SUNNY     51  46  83 W16       29.68R
MIDLAND        FAIR      51  43  72 W10       29.67R
TROY           MOSUNNY   58  50  76 SW7G17    29.70R
SAGINAW HB     SUNNY     54  43  66 W16       29.67R
$$
MIZ043>046-050>051-056>058-064>065-071>073-077>080-231500-
SOUTHWEST LOWER MICHIGAN

CITY           SKY/WX    TMP DP  RH WIND       PRES   REMARKS
BATTLE CREEK   SUNNY     51  45  79 W9        29.73R
BENTON HARBOR  SUNNY     48  41  76 VRB7      29.76R
BIG RAPIDS     CLOUDY    41  38  89 NW15      29.70R
COLDWATER      SUNNY     53  51  92 W8        29.73S
FREMONT        CLOUDY    40  40 100 NW12      29.73R FOG     WCI  33
HOLLAND        CLOUDY    42  39  89 NW6       29.76R
GRAND RAPIDS   PTSUNNY   46  40  79 NW12      29.73R
IONIA          FAIR      49  42  76 W12       29.70R
KALAMAZOO      SUNNY     51  44  77 W10       29.74R
LUDINGTON      CLOUDY    38  35  91 N12G21    29.77R WCI  30
MARSHALL       SUNNY     53  49  84 W8        29.72R
MOUNT PLEASANT PTSUNNY   47  42  82 W7        29.69R
MUSKEGON       CLOUDY    41  40  96 W5        29.75R FOG
SOUTH HAVEN    PTSUNNY   45  41  88 NW8       29.77R
$$
MIZ016>042-231500-
NORTHERN LOWER MICHIGAN

CITY           SKY/WX    TMP DP  RH WIND       PRES   REMARKS
ALPENA         CLOUDY    42  41  96 W8G17     29.61R
BEAVER ISLAND  CLOUDY    35  34  97 NW12G17   29.73R WCI  26
BELLAIRE       CLOUDY    36  35  95 NW7       29.75R FOG     WCI  30
CADILLAC       CLOUDY    38  36  93 W8        29.71R WCI  32
CHARLEVOIX     CLOUDY    36  36 100 W8        29.77R WCI  29
FRANKFORT      CLOUDY    37  35  92 N7        29.78R WCI  31
GAYLORD        CLOUDY    37  34  89 W7        29.67R FOG     WCI  32
GRAYLING       CLOUDY    38  36  94 NW9G17    29.68R FOG     WCI  31
HARBOR SPRINGS CLOUDY    36  35  99 W5        29.69R WCI  32
HOUGHTON LAKE  CLOUDY    37  35  92 W10       29.68R WCI  30
MANISTEE       CLOUDY    37  34  89 N12       29.77R WCI  29
OSCODA         MOSUNNY   49  43  80 W13G22    29.60R
PELLSTON       CLOUDY    36  33  89 W13       29.69R WCI  27
ROGERS CITY    CLOUDY    39  38  94 W9G16     29.63R WCI  33
TRAVERSE CITY  CLOUDY    39  34  82 NW12G20   29.75R WCI  32
$$
MIZ007>008-015-231500-
EASTERN UPPER MICHIGAN

CITY           SKY/WX    TMP DP  RH WIND       PRES   REMARKS
KINROSS        LGT RAIN  34  33  96 N16       29.64R WCI  24
MACKINAC ISLAN CLOUDY    35  35 100 N9G16     29.65R WCI  27
NEWBERRY       CLOUDY    32  32 100 NW14G20   29.71R WCI  22
S. S. MARIE    CLOUDY    35  33  92 NW8       29.65R WCI  29
MUNISING         N/A     35  30  82 N14       29.79R WCI  26
$$
MIZ004>006-011>014-085-231500-
CENTRAL UPPER MICHIGAN

CITY           SKY/WX    TMP DP  RH WIND       PRES   REMARKS
MANISTIQUE     CLOUDY    33  33  98 N15G21    29.74R WCI  23
ESCANABA       CLOUDY    35  29  78 N12G20    29.79R WCI  27
MENOMINEE      CLOUDY    35  29  78 N12       29.85R WCI  27
SAWYER-GWINN   CLOUDY    30  27  86 N13G20    29.80R WCI  20
$$
MIZ001>003-009>011-084-231500-
WESTERN UPPER MICHIGAN

CITY           SKY/WX    TMP DP  RH WIND       PRES   REMARKS
IRON MOUNTAIN  CLOUDY    32  25  75 N12       29.79R WCI  23
HOUGHTON       CLOUDY    30  23  75 NW8       29.83R WCI  22
COPPER HARBOR    N/A     34  23  64 NE12      29.81R WCI  25
IRONWOOD       CLOUDY    30  28  93 NW8       29.87S WCI  23
$$

ABBREVIATIONS USED IN REMARKS
   TC - TEMPERATURE IN CELSIUS
  WCI - WIND CHILL INDEX
   HX - HEAT INDEX
  VSB - VISIBILITY




USA.gov is the U.S. government's official web portal to all federal, state and local government web resources and services.